| time (UTC) | temp C | wind direction | speed KPH | gust KPH | rain 1hr cm | rain 24hr cm | rain mn cm | humidity % | barometer mb |
| 20260903093028 | 24 | 44 | 0.0 | 0.0 | 0.00 | 0.10 | 0.00 | 98 | 1011.0 |
| 20260903092027 | 24 | 44 | 0.0 | 0.0 | 0.00 | 0.10 | 0.00 | 98 | 1011.0 |
| 20260903091026 | 24 | 44 | 0.0 | 0.0 | 0.00 | 0.10 | 0.00 | 98 | 1011.3 |
| 20260903090025 | 25 | 44 | 0.0 | 0.0 | 0.00 | 0.10 | 0.00 | 98 | 1011.3 |
| 20260903085024 | 25 | 44 | 0.0 | 0.0 | 0.00 | 0.10 | 0.00 | 98 | 1011.3 |
| 20260903084023 | 25 | 44 | 0.0 | 0.0 | 0.00 | 0.10 | 0.00 | 98 | 1011.0 |
| 20260903083023 | 25 | 44 | 0.0 | 0.0 | 0.00 | 0.10 | 0.00 | 98 | 1011.0 |
| 20260903081951 | 25 | 44 | 0.0 | 0.0 | 0.00 | 0.10 | 0.00 | 98 | 1011.0 |
| 20260903080950 | 25 | 44 | 0.0 | 1.6 | 0.00 | 0.10 | 0.00 | 98 | 1011.0 |
| 20260903075949 | 25 | 44 | 0.0 | 1.6 | 0.00 | 0.10 | 0.00 | 97 | 1011.0 |
| 20260903074948 | 25 | 44 | 1.6 | 1.6 | 0.00 | 0.10 | 0.00 | 97 | 1011.0 |
| 20260903073947 | 25 | 44 | 0.0 | 0.0 | 0.00 | 0.10 | 0.00 | 97 | 1011.0 |
| 20260903072946 | 25 | 40 | 0.0 | 1.6 | 0.00 | 0.10 | 0.00 | 97 | 1011.3 |
| 20260903071844 | 25 | 36 | 1.6 | 1.6 | 0.00 | 0.10 | 0.00 | 97 | 1011.3 |
| 20260903070843 | 25 | 36 | 0.0 | 1.6 | 0.00 | 0.10 | 0.00 | 97 | 1011.3 |
| 20260903065842 | 25 | 36 | 1.6 | 1.6 | 0.00 | 0.10 | 0.00 | 97 | 1011.7 |
| 20260903064841 | 25 | 36 | 0.0 | 0.0 | 0.00 | 0.10 | 0.00 | 97 | 1011.7 |
| 20260903063840 | 25 | 36 | 0.0 | 0.0 | 0.00 | 0.10 | 0.00 | 97 | 1011.7 |
| 20260903062840 | 25 | 36 | 0.0 | 0.0 | 0.00 | 0.10 | 0.00 | 97 | 1012.0 |
| 20260903061839 | 25 | 36 | 0.0 | 1.6 | 0.00 | 0.10 | 0.00 | 97 | 1012.0 |
| 20260903060838 | 25 | 36 | 0.0 | 1.6 | 0.00 | 0.10 | 0.00 | 97 | 1012.0 |
| 20260903055837 | 25 | 115 | 0.0 | 0.0 | 0.00 | 0.10 | 0.00 | 97 | 1012.0 |
| 20260903054836 | 25 | 116 | 0.0 | 1.6 | 0.00 | 0.10 | 0.00 | 96 | 1012.0 |
| 20260903053836 | 25 | 115 | 1.6 | 1.6 | 0.00 | 0.10 | 0.00 | 96 | 1012.3 |
| 20260903052835 | 25 | 115 | 0.0 | 1.6 | 0.00 | 0.10 | 0.00 | 96 | 1012.4 |
| 20260903051834 | 25 | 115 | 0.0 | 1.6 | 0.00 | 0.10 | 0.00 | 96 | 1012.3 |
| 20260903050833 | 25 | 115 | 1.6 | 1.6 | 0.00 | 0.10 | 0.00 | 96 | 1012.7 |
| 20260903045832 | 25 | 116 | 1.6 | 1.6 | 0.00 | 0.10 | 0.00 | 96 | 1012.7 |
| 20260903044831 | 25 | 116 | 0.0 | 1.6 | 0.00 | 0.10 | 0.00 | 96 | 1012.7 |
| 20260903043830 | 25 | 115 | 0.0 | 1.6 | 0.00 | 0.10 | 0.00 | 96 | 1012.7 |
| 20260903042758 | 25 | 115 | 0.0 | 0.0 | 0.00 | 0.10 | 0.00 | 96 | 1012.7 |
| 20260903041726 | 25 | 115 | 0.0 | 0.0 | 0.00 | 0.10 | 0.00 | 95 | 1012.7 |
| 20260903040725 | 26 | 116 | 0.0 | 0.0 | 0.00 | 0.10 | 0.00 | 95 | 1013.0 |
| 20260903035724 | 26 | 116 | 0.0 | 1.6 | 0.00 | 0.10 | 0.10 | 95 | 1013.0 |
| 20260903034723 | 26 | 115 | 0.0 | 1.6 | 0.00 | 0.10 | 0.10 | 95 | 1013.0 |
| 20260903033722 | 26 | 101 | 0.0 | 1.6 | 0.00 | 0.10 | 0.10 | 94 | 1013.0 |
| 20260903032650 | 26 | 121 | 1.6 | 3.2 | 0.00 | 0.10 | 0.10 | 94 | 1012.7 |
| 20260903031650 | 26 | 82 | 0.0 | 4.8 | 0.00 | 0.10 | 0.10 | 94 | 1012.7 |
| 20260903030649 | 26 | 107 | 1.6 | 3.2 | 0.00 | 0.10 | 0.10 | 94 | 1012.7 |
| 20260903025648 | 26 | 91 | 1.6 | 8.0 | 0.00 | 0.10 | 0.10 | 94 | 1013.0 |
| 20260903024647 | 26 | 105 | 1.6 | 9.7 | 0.00 | 0.10 | 0.10 | 95 | 1013.0 |
| 20260903023646 | 26 | 121 | 1.6 | 3.2 | 0.00 | 0.10 | 0.10 | 95 | 1013.0 |
| 20260903022645 | 26 | 129 | 1.6 | 1.6 | 0.00 | 0.10 | 0.10 | 95 | 1013.0 |
| 20260903021644 | 26 | 111 | 1.6 | 1.6 | 0.00 | 0.10 | 0.10 | 95 | 1013.0 |
| 20260903020612 | 26 | 51 | 0.0 | 1.6 | 0.00 | 0.10 | 0.10 | 95 | 1013.0 |
| 20260903015540 | 26 | 67 | 0.0 | 3.2 | 0.00 | 0.10 | 0.10 | 95 | 1013.0 |
| 20260903014539 | 26 | 70 | 1.6 | 4.8 | 0.00 | 0.10 | 0.10 | 95 | 1012.7 |
| 20260903013539 | 26 | 79 | 1.6 | 4.8 | 0.00 | 0.10 | 0.10 | 94 | 1012.7 |
| 20260903012538 | 26 | 83 | 1.6 | 4.8 | 0.00 | 0.10 | 0.10 | 94 | 1012.7 |
| 20260903011537 | 27 | 22 | 1.6 | 3.2 | 0.00 | 0.10 | 0.10 | 93 | 1012.7 |
| 20260903010536 | 27 | 77 | 1.6 | 3.2 | 0.00 | 0.10 | 0.10 | 93 | 1012.7 |
| 20260903005535 | 27 | 51 | 1.6 | 3.2 | 0.00 | 0.10 | 0.10 | 92 | 1012.7 |
| 20260903004503 | 27 | 61 | 1.6 | 1.6 | 0.00 | 0.10 | 0.10 | 92 | 1012.7 |
| 20260903003503 | 27 | 72 | 0.0 | 1.6 | 0.00 | 0.10 | 0.10 | 92 | 1012.7 |
| 20260903002502 | 27 | 36 | 0.0 | 3.2 | 0.00 | 0.10 | 0.10 | 91 | 1012.7 |
| 20260903001430 | 27 | 25 | 0.0 | 3.2 | 0.00 | 0.10 | 0.10 | 91 | 1012.3 |
| 20260903000429 | 27 | 60 | 1.6 | 4.8 | 0.00 | 0.10 | 0.10 | 90 | 1012.3 |
| 20260902235357 | 27 | 23 | 3.2 | 4.8 | 0.00 | 0.10 | 0.10 | 90 | 1012.3 |
| 20260902234356 | 27 | 82 | 1.6 | 6.4 | 0.00 | 0.10 | 0.10 | 89 | 1012.3 |
| 20260902233355 | 27 | 62 | 1.6 | 6.4 | 0.00 | 0.10 | 0.10 | 89 | 1012.3 |
| 20260902232354 | 27 | 57 | 1.6 | 6.4 | 0.00 | 0.10 | 0.10 | 88 | 1012.3 |
| 20260902231353 | 28 | 17 | 1.6 | 8.0 | 0.00 | 0.10 | 0.10 | 88 | 1012.0 |
| 20260902230352 | 28 | 51 | 3.2 | 8.0 | 0.00 | 0.10 | 0.10 | 88 | 1012.0 |
| 20260902225351 | 28 | 43 | 3.2 | 6.4 | 0.00 | 0.10 | 0.10 | 88 | 1012.0 |
| 20260902224350 | 28 | 14 | 1.6 | 9.7 | 0.00 | 0.10 | 0.10 | 88 | 1011.7 |
| 20260902223350 | 28 | 29 | 1.6 | 11.3 | 0.00 | 0.10 | 0.10 | 88 | 1011.7 |
| 20260902222349 | 28 | 52 | 3.2 | 8.0 | 0.00 | 0.10 | 0.10 | 88 | 1011.7 |
| 20260902221348 | 28 | 56 | 3.2 | 11.3 | 0.00 | 0.10 | 0.10 | 86 | 1011.7 |
| 20260902220347 | 28 | 68 | 3.2 | 12.9 | 0.00 | 0.10 | 0.10 | 85 | 1011.7 |
| 20260902215346 | 28 | 36 | 3.2 | 12.9 | 0.00 | 0.10 | 0.10 | 85 | 1011.7 |
| 20260902214346 | 29 | 55 | 3.2 | 14.5 | 0.00 | 0.10 | 0.10 | 83 | 1011.7 |
| 20260902213345 | 30 | 44 | 4.8 | 11.3 | 0.00 | 0.10 | 0.10 | 82 | 1011.7 |
| 20260902212344 | 30 | 53 | 3.2 | 11.3 | 0.00 | 0.10 | 0.10 | 80 | 1011.7 |
| 20260902211312 | 30 | 68 | 4.8 | 11.3 | 0.00 | 0.10 | 0.10 | 79 | 1012.0 |
| 20260902210311 | 30 | 64 | 3.2 | 11.3 | 0.00 | 0.10 | 0.10 | 78 | 1012.0 |
| 20260902205310 | 30 | 19 | 3.2 | 12.9 | 0.00 | 0.10 | 0.10 | 77 | 1011.7 |
| 20260902204309 | 31 | 13 | 4.8 | 12.9 | 0.00 | 0.10 | 0.10 | 77 | 1011.7 |
| 20260902203308 | 31 | 34 | 3.2 | 9.7 | 0.00 | 0.10 | 0.10 | 76 | 1011.7 |
| 20260902202308 | 31 | 50 | 4.8 | 11.3 | 0.00 | 0.10 | 0.10 | 74 | 1011.7 |
| 20260902201307 | 31 | 42 | 1.6 | 12.9 | 0.00 | 0.10 | 0.10 | 74 | 1011.7 |
| 20260902200306 | 31 | 38 | 4.8 | 11.3 | 0.00 | 0.10 | 0.10 | 75 | 1011.7 |
| 20260902195306 | 32 | 66 | 4.8 | 9.7 | 0.00 | 0.10 | 0.10 | 73 | 1011.7 |
| 20260902194304 | 31 | 73 | 3.2 | 11.3 | 0.00 | 0.10 | 0.10 | 73 | 1011.7 |
| 20260902193304 | 31 | 49 | 1.6 | 9.7 | 0.00 | 0.10 | 0.10 | 73 | 1012.0 |
| 20260902192306 | 32 | 23 | 3.2 | 9.7 | 0.00 | 0.10 | 0.10 | 71 | 1012.0 |
| 20260902191302 | 32 | 53 | 1.6 | 11.3 | 0.00 | 0.10 | 0.10 | 69 | 1012.0 |
| 20260902190230 | 33 | 65 | 3.2 | 11.3 | 0.00 | 0.10 | 0.10 | 68 | 1012.0 |
| 20260902185229 | 32 | 35 | 4.8 | 11.3 | 0.00 | 0.10 | 0.10 | 70 | 1012.0 |
| 20260902184228 | 32 | 76 | 3.2 | 11.3 | 0.00 | 0.10 | 0.10 | 71 | 1012.0 |
| 20260902183227 | 32 | 46 | 3.2 | 14.5 | 0.00 | 0.10 | 0.10 | 72 | 1012.3 |
| 20260902182226 | 30 | 42 | 4.8 | 16.1 | 0.00 | 0.10 | 0.10 | 77 | 1012.7 |
| 20260902181225 | 30 | 64 | 4.8 | 11.3 | 0.00 | 0.10 | 0.10 | 78 | 1012.7 |
| 20260902180224 | 31 | 15 | 3.2 | 11.3 | 0.00 | 0.10 | 0.10 | 76 | 1012.7 |
| 20260902175224 | 32 | 37 | 4.8 | 11.3 | 0.00 | 0.10 | 0.10 | 74 | 1012.7 |
| 20260902174152 | 32 | 26 | 3.2 | 12.9 | 0.00 | 0.10 | 0.10 | 73 | 1012.7 |
| 20260902173049 | 32 | 91 | 3.2 | 12.9 | 0.00 | 0.10 | 0.10 | 73 | 1012.7 |
| 20260902172048 | 32 | 25 | 4.8 | 12.9 | 0.03 | 0.10 | 0.10 | 75 | 1013.0 |
| 20260902171047 | 31 | 106 | 3.2 | 11.3 | 0.08 | 0.10 | 0.10 | 77 | 1013.0 |
| 20260902170046 | 31 | 24 | 4.8 | 12.9 | 0.08 | 0.10 | 0.10 | 81 | 1013.4 |
| 20260902165045 | 30 | 7 | 4.8 | 12.9 | 0.08 | 0.10 | 0.10 | 83 | 1013.4 |
| 20260902164044 | 29 | 10 | 1.6 | 14.5 | 0.08 | 0.10 | 0.10 | 93 | 1013.0 |
| 20260902163043 | 28 | 343 | 1.6 | 11.3 | 0.08 | 0.10 | 0.10 | 94 | 1013.4 |
| 20260902161909 | 29 | 54 | 3.2 | 12.9 | 0.03 | 0.05 | 0.05 | 90 | 1013.7 |
| 20260902160908 | 28 | 8 | 3.2 | 14.5 | 0.00 | 0.03 | 0.03 | 87 | 1013.7 |
| 20260902155907 | 28 | 38 | 3.2 | 9.7 | 0.00 | 0.03 | 0.03 | 91 | 1013.7 |
| 20260902154906 | 27 | 17 | 3.2 | 9.7 | 0.03 | 0.03 | 0.03 | 93 | 1014.0 |
| 20260902153905 | 28 | 32 | 1.6 | 17.7 | 0.03 | 0.03 | 0.03 | 91 | 1014.0 |
| 20260902152904 | 29 | 16 | 6.4 | 17.7 | 0.03 | 0.03 | 0.03 | 87 | 1014.0 |
| 20260902151903 | 29 | 83 | 3.2 | 12.9 | 0.03 | 0.03 | 0.03 | 88 | 1014.0 |
| 20260902150903 | 28 | 23 | 4.8 | 11.3 | 0.03 | 0.03 | 0.03 | 89 | 1014.0 |
| 20260902145831 | 28 | 93 | 1.6 | 11.3 | 0.03 | 0.03 | 0.03 | 93 | 1014.0 |
| 20260902144830 | 28 | 23 | 3.2 | 9.7 | 0.00 | 0.00 | 0.00 | 90 | 1014.0 |
| 20260902143829 | 28 | 12 | 3.2 | 9.7 | 0.00 | 0.00 | 0.00 | 90 | 1014.0 |
| 20260902142828 | 28 | 28 | 3.2 | 11.3 | 0.00 | 0.00 | 0.00 | 91 | 1014.0 |
| 20260902141828 | 29 | 26 | 3.2 | 9.7 | 0.00 | 0.00 | 0.00 | 85 | 1014.0 |
| 20260902140827 | 29 | 67 | 3.2 | 9.7 | 0.00 | 0.00 | 0.00 | 84 | 1014.0 |
| 20260902135755 | 30 | 39 | 4.8 | 11.3 | 0.00 | 0.00 | 0.00 | 84 | 1013.7 |
| 20260902134754 | 29 | 54 | 3.2 | 8.0 | 0.00 | 0.00 | 0.00 | 86 | 1013.7 |
| 20260902133753 | 28 | 21 | 3.2 | 9.7 | 0.00 | 0.00 | 0.00 | 88 | 1013.7 |
| 20260902132752 | 28 | 20 | 4.8 | 9.7 | 0.00 | 0.00 | 0.00 | 90 | 1013.7 |
| 20260902131751 | 27 | 20 | 3.2 | 12.9 | 0.00 | 0.00 | 0.00 | 92 | 1014.0 |
| 20260902130750 | 27 | 23 | 6.4 | 12.9 | 0.00 | 0.00 | 0.00 | 91 | 1014.0 |
| 20260902125749 | 27 | 21 | 3.2 | 14.5 | 0.00 | 0.00 | 0.00 | 93 | 1014.0 |
| 20260902124748 | 27 | 54 | 3.2 | 6.4 | 0.00 | 0.00 | 0.00 | 95 | 1013.7 |
| 20260902123748 | 26 | 22 | 1.6 | 4.8 | 0.00 | 0.00 | 0.00 | 99 | 1013.7 |
| 20260902122747 | 26 | 6 | 1.6 | 3.2 | 0.00 | 0.00 | 0.00 | 99 | 1013.7 |
| 20260902121746 | 25 | 26 | 1.6 | 3.2 | 0.00 | 0.00 | 0.00 | 99 | 1013.7 |
| 20260902120745 | 25 | 6 | 1.6 | 1.6 | 0.00 | 0.00 | 0.00 | 99 | 1013.7 |
| 20260902115745 | 24 | 6 | 0.0 | 1.6 | 0.00 | 0.00 | 0.00 | 99 | 1013.7 |
| 20260902114712 | 24 | 5 | 0.0 | 0.0 | 0.00 | 0.00 | 0.00 | 99 | 1013.7 |
| 20260902113712 | 24 | 1 | 0.0 | 0.0 | 0.00 | 0.00 | 0.00 | 99 | 1013.7 |
| 20260902112710 | 24 | 1 | 0.0 | 0.0 | 0.00 | 0.00 | 0.00 | 99 | 1013.3 |
| 20260902111639 | 24 | 360 | 0.0 | 0.0 | 0.00 | 0.00 | 0.00 | 99 | 1013.3 |
| 20260902110606 | 24 | 1 | 0.0 | 0.0 | 0.00 | 0.00 | 0.00 | 99 | 1013.3 |
| 20260902105605 | 24 | 360 | 0.0 | 0.0 | 0.00 | 0.00 | 0.00 | 99 | 1013.3 |
| 20260902104605 | 24 | 1 | 0.0 | 0.0 | 0.00 | 0.00 | 0.00 | 99 | 1013.3 |
| 20260902103604 | 24 | 360 | 0.0 | 0.0 | 0.00 | 0.00 | 0.00 | 99 | 1013.0 |
| 20260902102603 | 23 | 1 | 0.0 | 0.0 | 0.00 | 0.00 | 0.00 | 99 | 1013.0 |
| 20260902101602 | 23 | 1 | 0.0 | 0.0 | 0.00 | 0.00 | 0.00 | 99 | 1013.0 |
| 20260902100601 | 23 | 1 | 0.0 | 0.0 | 0.00 | 0.00 | 0.00 | 99 | 1013.0 |
| 20260902095529 | 23 | 1 | 0.0 | 0.0 | 0.00 | 0.00 | 0.00 | 99 | 1013.0 |
| 20260902094529 | 23 | 1 | 0.0 | 0.0 | 0.00 | 0.00 | 0.00 | 99 | 1012.7 |